PEGASUS R/B

Satellite information

Favourite Embed

Satellite Type and Status

ROCKET BODYIN ORBIT

Key statistics

Satellite PEGASUS R/B at a glance.

Uptime

9274

Days in orbit

Revolutions

≈ 14.2

Per day

Orbit

LEO

Low Earth Orbit

Inclination

68.9

Latest

Satellite identification and parameters

Extended collection of information and parameters for PEGASUS R/B.

Object identification

Identified? True

Debris? False

Object name: PEGASUS R/B

International designator: 2000-030B

Object number (NORAD): 26375

Object ID (CCSDS): 26375

Country: UNITED STATES OF AMERICA (US)

Current information (Y/N): Y

RCS size: LARGE

Orbital parameters

Period: 101.708 minutes

Inclination: 68.946 deg

SMA: 7217.671 km

Apoapsis: 1273.737 km

Periapsis: 405.334 km

RAAN: 316.5565 deg

Eccentricy: 0.06015815

Argument of periapsis: 354.5287 deg

Mean anomaly: 4.943 deg

Mean motion: 14.1581718 rev/day

Mean motion (dot): 0.00007011 rev/day2

B* drag term: 0.00056230605 1/REarth

Two-line elements (TLE)

Creation date: Oct. 27, 2025, 2:46 a.m.

Reference frame: TEME

Reference center: EARTH

Epoch: Oct. 26, 2025, 9:56 p.m. UTC

TLE line 0: 0 PEGASUS R/B

TLE line 1: 1 26375U 00030B 25299.91445522 .00007011 00000-0 56231-3 0 9994

TLE line 2: 2 26375 68.9460 316.5565 0601581 354.5287 4.9430 14.15817180631831

Live tracking on map

Real-time ground track for satellite PEGASUS R/B.

In-orbit conjunctions

A list of the most updated potential collisions computed for object PEGASUS R/B.

Target Orbit TCA Probability of collision Miss distance Type
CZ-6A DEB LEO 2025-05-09 08:26:16 0.0002925631 95.0 (m) DEBRIS
FENGYUN 1C DEB SSO 2025-03-09 04:31:16 0.0004158797 225.0 (m) DEBRIS

Associated space launch

PEGASUS R/B was lifted into orbit during the mission ‘Pegasus XL | Tri-Services Experiments Platform-5 (TSX-5)’, on board a Pegasus XL space rocket.

The launch took place on June 7, 2000, 1:19 p.m. from Vandenberg Space Force Base.

For more information about the launch, click the button.

Launch to space Pegasus XL | Tri-Services Experiments Platform-5 (TSX-5)
Pegasus XL | Tri-Services Experiments Platform-5 (TSX-5)

Agency: N/A

Status: Launch Successful

Launch date: June 7, 2000, 1:19 p.m. UTC

Rocket: Pegasus XL

Launch pad: Vandenberg Space Force Base

Location: Air launch to orbit

...

Latest news about this satellite

There are no fresh news available about this satellite. Check back as we update our databases every day.


Newsletter sign-up

Weekly statistics, charts and insights to help you stay on top of the space industry.